• In United Kingdom
  • List of Countries
  • For 7 days
  • Water Temperature
  • Satellite Maps
  • Weather Map
  • Weather Widgets
  • user-avatar
    Login

    Hourly Weather Coleraine

    Today, 18 June, Monday

    Time Temperature Precipitation Wind Pressure Humidity
    00:00 +9°C° 0 mm 6 mps 756 mmHg 93%
    01:00 +9°C° 0 mm 6 mps 756 mmHg 93%
    02:00 +9°C° 0 mm 6 mps 757 mmHg 92%
    03:00 +9°C° 0 mm 7 mps 757 mmHg 92%
    04:00 +9°C° 0 mm 7 mps 757 mmHg 91%
    05:00 +9°C° 0 mm 7 mps 757 mmHg 89%
    06:00 +10°C° 0 mm 7 mps 758 mmHg 88%
    07:00 +11°C° 0 mm 6 mps 758 mmHg 83%
    08:00 +13°C° 0 mm 6 mps 758 mmHg 79%
    09:00 +14°C° 0 mm 6 mps 758 mmHg 74%
    10:00 +14°C° 0 mm 6 mps 758 mmHg 74%
    11:00 +15°C° 0 mm 6 mps 758 mmHg 74%
    12:00 +16°C° 0 mm 6 mps 758 mmHg 74%
    13:00 +15°C° 0.2 mm 5 mps 758 mmHg 80%
    14:00 +14°C° 0.2 mm 5 mps 757 mmHg 87%
    15:00 +13°C° 0.2 mm 4 mps 757 mmHg 94%
    16:00 +13°C° 0.1 mm 5 mps 757 mmHg 91%
    17:00 +13°C° 0.1 mm 6 mps 758 mmHg 89%
    18:00 +12°C° 0.1 mm 7 mps 758 mmHg 86%
    19:00 +11°C° 0 mm 7 mps 758 mmHg 85%
    20:00 +10°C° 0 mm 6 mps 759 mmHg 84%
    21:00 +9°C° 0 mm 6 mps 760 mmHg 83%
    22:00 +9°C° 0 mm 6 mps 760 mmHg 82%
    23:00 +9°C° 0 mm 6 mps 761 mmHg 80%

    Tomorrow, 19 June, Tuesday

    Time Temperature Precipitation Wind Pressure Humidity
    00:00 +8°C° 0 mm 6 mps 761 mmHg 79%
    01:00 +8°C° 0 mm 6 mps 761 mmHg 81%
    02:00 +7°C° 0 mm 5 mps 762 mmHg 83%
    03:00 +6°C° 0 mm 5 mps 762 mmHg 86%
    04:00 +7°C° 0 mm 5 mps 762 mmHg 84%
    05:00 +7°C° 0 mm 5 mps 762 mmHg 82%
    06:00 +8°C° 0 mm 5 mps 762 mmHg 80%
    07:00 +9°C° 0 mm 5 mps 763 mmHg 80%
    08:00 +10°C° 0 mm 4 mps 763 mmHg 79%
    09:00 +11°C° 0 mm 4 mps 763 mmHg 79%
    10:00 +11°C° 0 mm 4 mps 763 mmHg 76%
    11:00 +12°C° 0 mm 3 mps 763 mmHg 74%
    12:00 +12°C° 0 mm 3 mps 763 mmHg 72%
    13:00 +13°C° 0.1 mm 3 mps 763 mmHg 75%
    14:00 +14°C° 0.1 mm 2 mps 763 mmHg 78%
    15:00 +14°C° 0.1 mm 2 mps 762 mmHg 82%
    16:00 +13°C° 1.3 mm 2 mps 762 mmHg 86%
    17:00 +12°C° 1.3 mm 2 mps 761 mmHg 91%
    18:00 +10°C° 1.3 mm 3 mps 761 mmHg 96%
    19:00 +10°C° 2.2 mm 3 mps 760 mmHg 96%
    20:00 +10°C° 2.2 mm 4 mps 760 mmHg 97%
    21:00 +10°C° 2.2 mm 4 mps 759 mmHg 97%
    22:00 +10°C° 0.7 mm 4 mps 759 mmHg 97%
    23:00 +10°C° 0.7 mm 3 mps 759 mmHg 98%

    Day after tomorrow, 20 June, Wednesday

    Time Temperature Precipitation Wind Pressure Humidity
    00:00 +11°C° 0.7 mm 3 mps 759 mmHg 98%
    01:00 +11°C° 0.2 mm 3 mps 759 mmHg 98%
    02:00 +10°C° 0.2 mm 3 mps 759 mmHg 97%
    03:00 +10°C° 0.2 mm 3 mps 760 mmHg 97%
    04:00 +10°C° 0 mm 4 mps 760 mmHg 97%
    05:00 +10°C° 0 mm 4 mps 760 mmHg 96%
    06:00 +10°C° 0 mm 4 mps 761 mmHg 96%
    07:00 +11°C° 0 mm 4 mps 761 mmHg 92%
    08:00 +11°C° 0 mm 4 mps 762 mmHg 88%
    09:00 +12°C° 0 mm 4 mps 762 mmHg 84%
    10:00 +13°C° 0 mm 4 mps 763 mmHg 78%
    11:00 +13°C° 0 mm 5 mps 763 mmHg 73%
    12:00 +14°C° 0 mm 5 mps 763 mmHg 68%
    13:00 +14°C° 0 mm 5 mps 763 mmHg 68%
    14:00 +14°C° 0 mm 5 mps 764 mmHg 68%
    15:00 +14°C° 0 mm 6 mps 764 mmHg 68%
    16:00 +13°C° 0 mm 6 mps 764 mmHg 69%
    17:00 +13°C° 0 mm 6 mps 764 mmHg 70%
    18:00 +11°C° 0 mm 6 mps 764 mmHg 71%
    19:00 +10°C° 0 mm 6 mps 765 mmHg 75%
    20:00 +9°C° 0 mm 6 mps 765 mmHg 79%
    21:00 +8°C° 0 mm 6 mps 766 mmHg 83%
    22:00 +8°C° 0 mm 6 mps 766 mmHg 84%
    23:00 +7°C° 0 mm 6 mps 766 mmHg 85%

    21 June, Thursday

    Time Temperature Precipitation Wind Pressure Humidity
    00:00 +7°C° 0 mm 6 mps 766 mmHg 86%
    01:00 +7°C° 0 mm 6 mps 767 mmHg 85%
    02:00 +7°C° 0 mm 6 mps 767 mmHg 85%
    03:00 +5°C° 0 mm 6 mps 767 mmHg 84%
    04:00 +7°C° 0 mm 6 mps 767 mmHg 83%
    05:00 +8°C° 0 mm 6 mps 768 mmHg 81%
    06:00 +9°C° 0 mm 6 mps 768 mmHg 80%
    07:00 +10°C° 0 mm 6 mps 768 mmHg 75%
    08:00 +11°C° 0 mm 6 mps 769 mmHg 70%
    09:00 +13°C° 0 mm 6 mps 769 mmHg 66%
    10:00 +13°C° 0 mm 6 mps 769 mmHg 64%
    11:00 +14°C° 0 mm 6 mps 770 mmHg 63%
    12:00 +14°C° 0 mm 6 mps 770 mmHg 62%
    13:00 +14°C° 0 mm 6 mps 770 mmHg 63%
    14:00 +14°C° 0 mm 6 mps 770 mmHg 64%
    15:00 +14°C° 0 mm 6 mps 771 mmHg 65%
    16:00 +14°C° 0 mm 6 mps 771 mmHg 68%
    17:00 +13°C° 0 mm 6 mps 771 mmHg 70%
    18:00 +13°C° 0 mm 6 mps 771 mmHg 73%
    19:00 +11°C° 0 mm 6 mps 771 mmHg 78%
    20:00 +10°C° 0 mm 5 mps 772 mmHg 84%
    21:00 +9°C° 0 mm 5 mps 772 mmHg 89%
    22:00 +8°C° 0 mm 5 mps 772 mmHg 91%
    23:00 +7°C° 0 mm 4 mps 772 mmHg 92%

    22 June, Friday

    Time Temperature Precipitation Wind Pressure Humidity
    00:00 +7°C° 0 mm 4 mps 772 mmHg 94%
    01:00 +7°C° 0 mm 4 mps 772 mmHg 93%
    02:00 +7°C° 0 mm 4 mps 773 mmHg 93%
    03:00 +6°C° 0 mm 4 mps 773 mmHg 93%
    04:00 +7°C° 0 mm 4 mps 773 mmHg 90%
    05:00 +8°C° 0 mm 4 mps 773 mmHg 88%
    06:00 +8°C° 0 mm 4 mps 773 mmHg 86%
    07:00 +10°C° 0 mm 5 mps 773 mmHg 81%
    08:00 +12°C° 0 mm 5 mps 773 mmHg 76%
    09:00 +13°C° 0 mm 5 mps 773 mmHg 71%
    10:00 +13°C° 0 mm 5 mps 773 mmHg 70%
    11:00 +14°C° 0 mm 5 mps 773 mmHg 69%
    12:00 +14°C° 0 mm 5 mps 773 mmHg 68%
    13:00 +14°C° 0 mm 5 mps 773 mmHg 68%
    14:00 +14°C° 0 mm 5 mps 773 mmHg 68%
    15:00 +14°C° 0 mm 6 mps 772 mmHg 68%
    16:00 +14°C° 0 mm 6 mps 772 mmHg 70%
    17:00 +13°C° 0 mm 5 mps 772 mmHg 72%
    18:00 +13°C° 0 mm 5 mps 772 mmHg 74%
    19:00 +12°C° 0 mm 5 mps 772 mmHg 80%
    20:00 +9°C° 0 mm 5 mps 773 mmHg 85%
    21:00 +8°C° 0 mm 4 mps 773 mmHg 90%
    22:00 +8°C° 0 mm 4 mps 773 mmHg 92%
    23:00 +7°C° 0 mm 4 mps 773 mmHg 93%

    23 June, Saturday

    Time Temperature Precipitation Wind Pressure Humidity
    00:00 +8°C° 0 mm 3 mps 773 mmHg 94%
    01:00 +7°C° 0 mm 3 mps 772 mmHg 94%
    02:00 +7°C° 0 mm 3 mps 772 mmHg 94%
    03:00 +7°C° 0 mm 3 mps 772 mmHg 94%
    04:00 +8°C° 0 mm 3 mps 772 mmHg 92%
    05:00 +8°C° 0 mm 4 mps 772 mmHg 91%
    06:00 +10°C° 0 mm 4 mps 772 mmHg 89%
    07:00 +11°C° 0 mm 4 mps 772 mmHg 84%
    08:00 +12°C° 0 mm 4 mps 772 mmHg 79%
    09:00 +13°C° 0 mm 4 mps 772 mmHg 75%
    10:00 +13°C° 0 mm 5 mps 771 mmHg 73%
    11:00 +14°C° 0 mm 5 mps 771 mmHg 71%
    12:00 +14°C° 0 mm 5 mps 771 mmHg 70%
    13:00 +14°C° 0 mm 5 mps 771 mmHg 70%
    14:00 +14°C° 0 mm 5 mps 771 mmHg 70%
    15:00 +15°C° 0 mm 5 mps 771 mmHg 69%
    16:00 +14°C° 0 mm 5 mps 771 mmHg 71%
    17:00 +14°C° 0 mm 5 mps 770 mmHg 73%
    18:00 +14°C° 0 mm 5 mps 770 mmHg 74%
    19:00 +12°C° 0 mm 4 mps 770 mmHg 80%
    20:00 +11°C° 0 mm 4 mps 770 mmHg 86%
    21:00 +10°C° 0 mm 3 mps 770 mmHg 91%
    22:00 +9°C° 0 mm 3 mps 770 mmHg 92%
    23:00 +9°C° 0 mm 3 mps 770 mmHg 93%
    Show more